#timestamp,LO_Frequency,Hit,StdDev 
1579392015.3,286046996.5,Y
1579392035.2,286046995.0,P
1579392055.9,286046997.1,N
1579392075.7,286046997.6,N
1579392095.6,286046997.5,N
1579392115.4,286046996.9,N
1579392135.2,286046998.8,N
1579392155.1,286046999.7,N
1579392156.0,286046999.7,N
1579392175.8,286046999.8,N
1579392195.7,286047001.0,N
1579392215.5,286047001.0,N
1579392235.3,286047000.6,N
1579392255.2,286047002.5,N
1579392275.0,286047000.0,N
1579392275.9,286047000.0,N
1579392295.7,286047000.7,N
1579392315.6,286047001.2,N
1579392335.4,286047000.6,N
1579392355.3,286046998.6,N
1579392375.1,286046999.5,N
1579392376.0,286046999.5,N
1579392395.8,286046999.6,N
1579392415.7,286046996.6,N
1579392435.5,286046998.4,N
1579392455.3,286046997.4,N
1579392475.2,286046998.9,N
1579392495.0,286047001.0,N
1579392495.9,286047001.0,N
1579392515.8,286046998.6,N
1579392535.6,286047001.0,N
1579392555.4,286046999.9,N
1579392575.3,286046999.8,N
1579392595.1,286047001.6,N
1579392615.8,286047000.0,N
1579392635.7,286047002.8,N
1579392655.5,286047001.6,N
1579392675.4,286047002.7,N
1579392695.2,286047000.0,N
1579392715.0,286047000.1,N
1579392715.9,286047000.1,N
1579392735.8,286047000.5,N
1579392755.6,286047001.0,N
1579392775.4,286047001.1,N
1579392795.3,286046998.8,N
1579392815.1,286047000.9,N
1579392835.9,286047000.0,N
1579392855.7,286047002.1,N
1579392875.5,286047002.7,N
1579392895.4,286047004.4,N
1579392915.2,286047001.7,N
1579392935.0,286047002.6,N
1579392935.9,286047002.6,N
1579392955.8,286047000.9,N
1579392975.6,286047000.6,N
1579392995.4,286047001.0,N
1579393015.3,286047000.2,N
1579393035.1,286047001.0,N
1579393055.9,286047000.3,N
1579393075.7,286046998.5,N
1579393095.5,286047001.1,N
1579393115.4,286046998.6,N
1579393135.2,286047000.9,N
1579393155.0,286047001.9,N
1579393155.9,286047001.9,N
1579393175.8,286046999.9,N
1579393195.6,286047001.0,N
1579393215.5,286047002.0,N
1579393235.3,286047001.8,N
1579393255.1,286047001.9,N
1579393275.9,286047002.3,N
1579393295.7,286047002.6,N
1579393315.5,286047001.9,N
1579393335.4,286047002.8,N
1579393355.2,286047001.9,N
1579393375.1,286047001.8,N
1579393376.0,286047001.8,N
1579393395.8,286047004.0,Y
1579393415.6,286047002.4,P
1579393435.5,286047000.2,N
1579393455.3,286046999.0,N
1579393475.1,286047000.7,N
1579393495.9,286047001.1,N
1579393515.7,286047001.1,N
1579393535.6,286046999.6,N
1579393555.4,286046996.7,Y
1579393575.2,286046998.7,P
1579393595.1,286046998.9,N
1579393596.0,286046998.9,N
1579393615.8,286046998.8,N
1579393635.6,286046999.2,N
1579393655.5,286046998.7,N
1579393675.3,286047000.6,N
1579393695.2,286047000.7,N
1579393715.9,286047000.1,N
1579393735.7,286047001.5,N
1579393755.6,286047000.2,N
1579393775.4,286046998.6,N
1579393795.2,286046996.9,Y
1579393815.1,286047001.0,P
1579393816.0,286047001.0,N
1579393835.8,286046998.7,N
1579393855.7,286046996.5,Y
1579393875.5,286046999.5,P
1579393895.3,286046997.6,P
1579393915.2,286046996.9,N
1579393935.0,286046999.4,N
1579393935.9,286046999.4,N
1579393955.8,286046997.4,N
1579393975.6,286046999.4,N
1579393995.4,286046998.8,N
1579394015.3,286046998.4,N
1579394035.1,286047000.6,N
1579394055.8,286047001.0,N
1579394075.7,286047000.7,N
1579394095.5,286047002.4,N
1579394115.4,286047002.3,N
1579394135.2,286047000.1,N
1579394155.0,286047000.5,N
1579394155.9,286047000.5,N
1579394175.8,286047000.6,N
1579394195.6,286047000.5,N
1579394215.4,286046999.8,N
1579394235.3,286047000.2,N
1579394255.1,286047002.8,N
1579394275.9,286046999.8,N
1579394295.7,286047002.1,N
1579394315.5,286046999.9,N
1579394335.4,286047000.0,N
1579394355.2,286047000.9,N
1579394375.0,286047001.1,N
1579394376.0,286047001.1,N
1579394395.8,286046998.9,N
1579394415.6,286046998.6,N
1579394435.5,286046999.6,N
1579394455.3,286047001.1,N
1579394475.1,286047001.0,N
1579394495.9,286047002.5,N
1579394515.7,286047002.2,N
1579394535.6,286047001.7,N
1579394555.4,286047002.4,N
1579394575.2,286047000.3,N
1579394595.1,286047000.6,N
1579394596.0,286047000.6,N
1579394615.8,286047003.1,N
1579394635.6,286047004.5,Y
1579394655.5,286047003.4,P
1579394675.3,286047005.9,P
1579394695.2,286047001.4,N
1579394715.9,286047001.8,N
1579394735.7,286047002.3,N
1579394755.6,286047000.0,N
1579394775.4,286047000.8,N
1579394795.2,286047001.5,N
1579394815.1,286047001.9,N
1579394816.0,286047001.9,N
1579394835.8,286047001.9,N
1579394855.7,286047001.3,N
1579394875.5,286047001.4,N
1579394895.3,286047000.2,N
1579394915.2,286047002.5,N
1579394935.0,286047002.6,N
1579394935.9,286047002.6,N
1579394955.7,286046999.8,N
1579394975.6,286047004.0,N
1579394995.4,286047002.0,N
1579395015.3,286046999.7,N
1579395035.1,286047002.3,N
1579395036.0,286047002.3,N
1579395055.8,286047002.7,N
1579395075.7,286047002.8,N
1579395095.5,286047002.2,N
1579395115.4,286047000.1,N
1579395135.2,286047001.4,N
1579395155.0,286047000.3,N
1579395155.9,286047000.3,N
1579395175.8,286047002.8,N
1579395195.6,286047003.0,N
1579395215.4,286047005.9,Y
1579395235.3,286047004.1,P
1579395255.1,286047002.5,N
1579395275.9,286046999.8,N
1579395295.7,286047001.9,N
1579395315.5,286047004.4,Y
1579395335.4,286047011.9,P
1579395355.2,286046997.1,N
1579395375.1,286046995.7,N
1579395376.0,286046995.7,N
1579395395.8,286046996.3,N
1579395415.6,286046993.8,N
1579395435.5,286046994.7,N
1579395455.3,286046997.7,N
1579395475.1,286046997.8,N
1579395495.9,286046997.7,N
1579395515.7,286046999.5,N
1579395535.6,286046996.9,N
1579395555.4,286046997.3,N
1579395575.2,286046995.7,N
1579395595.1,286046995.5,N
1579395596.0,286046995.5,N
